Flag for Finland Weather past 2 weeks in Jyväskylä, Finland

Now
52 °F

Passing clouds.


Feels Like: 49 °F
Forecast: 35 / 42 °F
Wind: 9 mph from Northwest

Location: Jyvaskyla Airport

Current Time: Apr 28, 2015 at 3:09:30 PM

Latest Report: Apr 28, 2015 at 2:20 PM


Visibility: N/A

Pressure: 29.65 "Hg

Humidity: 50%

Dew point: 34 °F

Location of JyväskyläLocation

Historic Weather in Jyväskylä — Graph

°F

Jyväskylä temperature yesterday

Maximum temperature yesterday: 52 °F (at 4:50 PM)
Minimum temperature yesterday: 36 °F (at 2:20 AM)
Average temperature yesterday: 43 °F

Past Weeks' High & Low Weather Summary

 TemperatureHumidityPressure
High54 °F (Apr 28, 1:19 PM)100% (Apr 13, 9:50 PM)30.07 "Hg (Apr 13, 9:50 PM)
Low28 °F (Apr 25, 5:50 AM)34% (Apr 22, 5:50 PM)29.03 "Hg (Apr 23, 7:50 AM)
Average38 °F79%29.64 "Hg
* Reported Apr 13 1:20 PM — Apr 28 1:50 PM, Jyväskylä, Weather by CustomWeather, © 2015

Note: Actual official high and low records may vary slightly from our data, if they occured in-between our weather recording intervals... More about our weather records

Advertising

Jyväskylä weather history for previous 24 hours

 ConditionsComfort  
Time TempWeatherWind HumidityBarometerVisibility
1:50 PM
Tue, Apr 28
50 °FPartly sunny.15 mph54%29.65 "HgN/A
1:19 PM54 °FSprinkles. Scattered clouds.6 mph41%29.62 "HgN/A
12:50 PM50 °FPartly sunny.6 mph54%29.62 "HgN/A
12:20 PM50 °FPartly sunny.10 mph58%29.62 "HgN/A
11:50 AM50 °FPartly sunny.8 mph62%29.62 "HgN/A
11:20 AM50 °FScattered clouds.8 mph67%29.59 "HgN/A
10:50 AM48 °FScattered clouds.6 mph71%29.59 "HgN/A
10:20 AM45 °FScattered clouds.8 mph87%29.59 "HgN/A
9:50 AM45 °FPartly sunny.8 mph87%29.59 "HgN/A
9:20 AM43 °FPartly sunny.7 mph93%29.56 "HgN/A
8:50 AM43 °FPartly sunny.7 mph93%29.56 "HgN/A
8:20 AM41 °FFog.7 mph93%29.56 "HgN/A
7:50 AM41 °FSunny.2 mph93%29.56 "Hg10 mi
7:20 AM41 °FSunny.1 mph93%29.56 "Hg10 mi
6:20 AM36 °FPassing clouds.No wind100%29.56 "HgN/A
5:50 AM37 °FOvercast.2 mph100%29.56 "HgN/A
5:20 AM36 °FPassing clouds.2 mph100%29.56 "HgN/A
4:50 AM37 °FPassing clouds.3 mph100%29.56 "HgN/A
4:20 AM39 °FOvercast.3 mph93%29.56 "HgN/A
3:50 AM39 °FScattered showers. Passing clouds.2 mph100%29.56 "HgN/A
2:50 AM41 °FScattered showers. Overcast.No wind93%29.56 "HgN/A
2:20 AM43 °FScattered showers. Mostly cloudy.No wind93%29.56 "HgN/A
1:50 AM41 °FScattered showers. Overcast.No wind100%29.59 "HgN/A
1:20 AM43 °FScattered showers. Overcast.3 mph93%29.59 "HgN/A
12:50 AM43 °FLight rain. Mostly cloudy.2 mph93%29.59 "HgN/A
12:20 AM45 °FDrizzle. Overcast.1 mph81%29.62 "HgN/A
11:50 PM
Mon, Apr 27
43 °FClear.3 mph81%29.62 "Hg10 mi
11:20 PM43 °FPassing clouds.2 mph81%29.62 "HgN/A
10:50 PM43 °FClear.5 mph81%29.62 "Hg10 mi
10:20 PM45 °FClear.5 mph76%29.65 "Hg10 mi
9:50 PM45 °FSunny.6 mph76%29.65 "Hg10 mi
9:20 PM46 °FSunny.7 mph71%29.65 "Hg10 mi
8:50 PM46 °FSunny.6 mph66%29.65 "Hg10 mi
8:20 PM48 °FSunny.13 mph66%29.65 "Hg10 mi
7:50 PM50 °FSunny.13 mph62%29.65 "Hg10 mi
7:20 PM50 °FSunny.10 mph62%29.65 "Hg10 mi
6:50 PM50 °FSunny.12 mph67%29.65 "Hg10 mi
6:20 PM52 °FSunny.15 mph62%29.65 "Hg10 mi
5:50 PM50 °FPartly sunny.12 mph67%29.65 "HgN/A
5:20 PM52 °FPartly sunny.9 mph62%29.65 "HgN/A
4:50 PM52 °FScattered clouds.10 mph58%29.68 "HgN/A
4:20 PM50 °FPartly sunny.12 mph67%29.68 "HgN/A
3:50 PM50 °FScattered clouds.7 mph67%29.68 "HgN/A
3:20 PM50 °FScattered clouds.9 mph67%29.68 "HgN/A
Weather by CustomWeather, © 2015

See weather overviewHow to use our weather pages